User: anonymous   Login
Location: Unspecified
(0.0000°N, 0.0000°E)
Time: 15:41:49
(UTC+02:00)
Language:

Coronas F rocket - Orbit

View from above orbital plane
View from above orbital plane
View from above satellite
View from above satellite

Ground track
Ground track

The orbit data is extracted from the following two-line orbital elements,

1 26874U 01032B   15145.51313819  .00012489  00000-0  12884-3 0  9990
2 26874 082.4661 341.7446 0010509 222.5430 137.5016 15.64551653774583
Epoch (UTC): 25 May 2015 12:18:55
Eccentricity: 0.0010509
inclination: 82.4661°
perigee height: 367 km
apogee height: 381 km
right ascension of ascending node: 341.7446°
argument of perigee: 222.5430°
revolutions per day: 15.64551653
mean anomaly at epoch: 137.5016°
orbit number at epoch: 77458

The dashed part of the orbit path shows where the satellite is in the earth's shadow,  

DLR